Location: Courcelles
(49.2596°N, 1.7419°E)
Time: 08:41:58
(UTC+00:00)

ISS - Pass Details

Date: 17 November 2025
Orbit: 416 x 420 km, 51.6° (Epoch: 13 December)

Event Time Altitude Azimuth Distance (km) Brightness Sun altitude
Rises 17:08:40 0° 227° (SW) 2,361 1.4 -9.8°
Reaches altitude 10° 17:10:50 10° 220° (SW) 1,499 0.0 -10.1°
Maximum altitude 17:14:00 40° 149° (SSE) 631 -3.0 -10.6°
Enters shadow 17:16:16 17° 85° (E) 1,154 -2.2 -11.0°
